Location: Shenandoah County Park
(38.9356°N, 78.4524°W)
Time: 23:59:25
(UTC-04:00)

Envisat - Visible Passes

Search period start: 27 May 2024 00:00
Search period end: 06 June 2024 00:00
Orbit: 762 x 764 km, 98.3° (Epoch: 27 May)

Date Brightness Start Highest point End Pass type
(mag) Time Alt. Az. Time Alt. Az. Time Alt. Az.
27 May 5.2 03:27:16 10° NE 03:30:50 19° E 03:34:24 10° SE visible
27 May 3.4 05:05:10 10° N 05:10:00 46° WNW 05:14:49 10° SW visible
28 May 3.1 04:27:39 10° NNE 04:32:44 78° ESE 04:37:47 10° S visible
29 May 4.4 03:50:43 10° NNE 03:55:16 33° E 03:59:48 10° SSE visible
30 May 5.5 03:14:57 10° ENE 03:17:36 14° E 03:20:16 10° ESE visible
30 May 3.1 04:51:57 10° N 04:56:57 61° WNW 05:01:56 10° SSW visible
31 May 3.5 04:14:37 10° NNE 04:19:37 58° E 04:24:36 10° S visible
01 Jun 4.8 03:37:57 10° NE 03:42:05 25° E 03:46:12 10° SSE visible
01 Jun 3.8 05:16:30 10° N 05:21:05 36° WNW 05:25:40 10° SW visible
02 Jun 5.8 03:03:56 10° E 03:04:21 10° E 03:04:45 10° E visible
02 Jun 3.0 04:38:47 10° N 04:43:53 82° WNW 04:48:56 10° SSW visible
03 Jun 4.0 04:01:39 10° NNE 04:06:29 43° E 04:11:16 10° S visible
04 Jun 5.2 03:25:21 10° NE 03:28:52 19° E 03:32:22 10° SE visible
04 Jun 3.4 05:03:11 10° N 05:08:03 47° WNW 05:12:53 10° SW visible
05 Jun 3.1 04:25:41 10° NNE 04:30:47 76° ESE 04:35:50 10° S visible
